Year,Month,Day,Hour,Minute,Value (Times are PST for windspeed in km/hr)
2015,12,05,00,00,9.00
2015,12,05,00,01,21.20
2015,12,05,00,02,17.90
2015,12,05,00,03,15.00
2015,12,05,00,04,8.00
2015,12,05,00,05,8.50
2015,12,05,00,06,6.70
2015,12,05,00,07,6.60
2015,12,05,00,08,4.70
2015,12,05,00,09,7.50
2015,12,05,00,10,9.20
2015,12,05,00,11,4.40
2015,12,05,00,12,8.20
2015,12,05,00,13,11.30
2015,12,05,00,14,12.00
2015,12,05,00,15,11.70
2015,12,05,00,16,8.20
2015,12,05,00,17,5.00
2015,12,05,00,18,3.80
2015,12,05,00,19,8.70
2015,12,05,00,20,7.30
2015,12,05,00,21,14.00
2015,12,05,00,22,17.30
2015,12,05,00,23,14.10
2015,12,05,00,24,12.50
2015,12,05,00,25,17.20
2015,12,05,00,26,14.50
2015,12,05,00,27,10.50
2015,12,05,00,28,14.10
2015,12,05,00,29,12.00
2015,12,05,00,30,6.40
2015,12,05,00,31,8.60
2015,12,05,00,32,9.80
2015,12,05,00,33,7.20
2015,12,05,00,34,8.80
2015,12,05,00,35,8.40
2015,12,05,00,36,11.00
2015,12,05,00,37,6.50
2015,12,05,00,38,13.00
2015,12,05,00,39,6.40
2015,12,05,00,40,9.70
2015,12,05,00,41,8.30
2015,12,05,00,42,2.40
2015,12,05,00,43,4.80
2015,12,05,00,44,6.40
2015,12,05,00,45,8.70
2015,12,05,00,46,7.00
2015,12,05,00,47,5.90
2015,12,05,00,48,7.60
2015,12,05,00,49,3.40
2015,12,05,00,50,4.40
2015,12,05,00,51,3.80
2015,12,05,00,52,5.50
2015,12,05,00,53,6.00
2015,12,05,00,54,5.80
2015,12,05,00,55,5.90
2015,12,05,00,56,8.80
2015,12,05,00,57,7.90
2015,12,05,00,58,8.50
2015,12,05,00,59,5.50
2015,12,05,01,00,6.70
2015,12,05,01,01,6.40
2015,12,05,01,02,4.10
2015,12,05,01,03,0.60
2015,12,05,01,04,7.30
2015,12,05,01,05,5.60
2015,12,05,01,06,6.30
2015,12,05,01,07,3.80
2015,12,05,01,08,3.40
2015,12,05,01,09,1.80
2015,12,05,01,10,4.80
2015,12,05,01,11,5.40
2015,12,05,01,12,3.00
2015,12,05,01,13,3.80
2015,12,05,01,14,6.70
2015,12,05,01,15,7.50
2015,12,05,01,16,9.10
2015,12,05,01,17,6.10
2015,12,05,01,18,7.30
2015,12,05,01,19,6.70
2015,12,05,01,20,5.70
2015,12,05,01,21,5.20
2015,12,05,01,22,4.30
2015,12,05,01,23,9.70
2015,12,05,01,24,14.60
2015,12,05,01,25,12.00
2015,12,05,01,26,11.30
2015,12,05,01,27,8.20
2015,12,05,01,28,8.90
2015,12,05,01,29,9.20
2015,12,05,01,30,13.80
2015,12,05,01,31,8.90
2015,12,05,01,32,14.70
2015,12,05,01,33,9.50
2015,12,05,01,34,9.70
2015,12,05,01,35,6.40
2015,12,05,01,36,6.20
2015,12,05,01,37,5.60
2015,12,05,01,38,3.90
2015,12,05,01,39,4.10
2015,12,05,01,40,7.50
2015,12,05,01,41,5.70
2015,12,05,01,42,5.10
2015,12,05,01,43,5.50
2015,12,05,01,44,2.50
2015,12,05,01,45,1.40
2015,12,05,01,46,1.20
2015,12,05,01,47,3.60
2015,12,05,01,48,6.10
2015,12,05,01,49,0.80
2015,12,05,01,50,1.30
2015,12,05,01,51,1.40
2015,12,05,01,52,1.00
2015,12,05,01,53,1.80
2015,12,05,01,54,2.00
2015,12,05,01,55,1.20
2015,12,05,01,56,3.20
2015,12,05,01,57,5.30
2015,12,05,01,58,4.40
2015,12,05,01,59,4.30
2015,12,05,02,00,2.80
2015,12,05,02,01,3.40
2015,12,05,02,02,8.30
2015,12,05,02,03,4.80
2015,12,05,02,04,6.80
2015,12,05,02,05,5.60
2015,12,05,02,06,8.40
2015,12,05,02,07,8.00
2015,12,05,02,08,11.40
2015,12,05,02,09,9.10
2015,12,05,02,10,17.00
2015,12,05,02,11,16.20
2015,12,05,02,12,14.30
2015,12,05,02,13,13.60
2015,12,05,02,14,13.20
2015,12,05,02,15,10.00
2015,12,05,02,16,13.40
2015,12,05,02,17,11.40
2015,12,05,02,18,3.40
2015,12,05,02,19,5.50
2015,12,05,02,20,4.10
2015,12,05,02,21,2.60
2015,12,05,02,22,1.60
2015,12,05,02,23,4.00
2015,12,05,02,24,7.00
2015,12,05,02,25,5.60
2015,12,05,02,26,8.30
2015,12,05,02,27,5.10
2015,12,05,02,28,7.00
2015,12,05,02,29,8.30
2015,12,05,02,30,12.50
2015,12,05,02,31,13.20
2015,12,05,02,32,9.10
2015,12,05,02,33,4.10
2015,12,05,02,34,7.90
2015,12,05,02,35,8.00
2015,12,05,02,36,12.00
2015,12,05,02,37,5.10
2015,12,05,02,38,12.20
2015,12,05,02,39,8.30
2015,12,05,02,40,10.70
2015,12,05,02,41,10.80
2015,12,05,02,42,9.00
2015,12,05,02,43,10.50
2015,12,05,02,44,10.90
2015,12,05,02,45,6.50
2015,12,05,02,46,9.40
2015,12,05,02,47,5.10
2015,12,05,02,48,7.70
2015,12,05,02,49,2.80
2015,12,05,02,50,4.70
2015,12,05,02,51,4.60
2015,12,05,02,52,2.90
2015,12,05,02,53,5.30
2015,12,05,02,54,5.50
2015,12,05,02,55,10.00
2015,12,05,02,56,8.30
2015,12,05,02,57,2.70
2015,12,05,02,58,1.00
2015,12,05,02,59,0.50
2015,12,05,03,00,4.40
2015,12,05,03,01,5.70
2015,12,05,03,02,4.10
2015,12,05,03,03,8.10
2015,12,05,03,04,8.90
2015,12,05,03,05,5.20
2015,12,05,03,06,9.80
2015,12,05,03,07,7.20
2015,12,05,03,08,9.70
2015,12,05,03,09,3.60
2015,12,05,03,10,3.50
2015,12,05,03,11,4.50
2015,12,05,03,12,5.20
2015,12,05,03,13,3.40
2015,12,05,03,14,2.50
2015,12,05,03,15,3.40
2015,12,05,03,16,3.40
2015,12,05,03,17,1.10
2015,12,05,03,18,1.90
2015,12,05,03,19,0.40
2015,12,05,03,20,4.30
2015,12,05,03,21,2.10
2015,12,05,03,22,1.40
2015,12,05,03,23,5.30
2015,12,05,03,24,2.80
2015,12,05,03,25,4.20
2015,12,05,03,26,3.10
2015,12,05,03,27,7.20
2015,12,05,03,28,9.90
2015,12,05,03,29,8.00
2015,12,05,03,30,4.90
2015,12,05,03,31,6.90
2015,12,05,03,32,4.90
2015,12,05,03,33,6.70
2015,12,05,03,34,10.00
2015,12,05,03,35,5.80
2015,12,05,03,36,7.50
2015,12,05,03,37,8.00
2015,12,05,03,38,8.60
2015,12,05,03,39,4.00
2015,12,05,03,40,2.10
2015,12,05,03,41,1.10
2015,12,05,03,42,6.60
2015,12,05,03,43,8.80
2015,12,05,03,44,9.50
2015,12,05,03,45,8.50
2015,12,05,03,46,7.00
2015,12,05,03,47,9.10
2015,12,05,03,48,7.60
2015,12,05,03,49,6.40
2015,12,05,03,50,13.40
2015,12,05,03,51,10.10
2015,12,05,03,52,7.30
2015,12,05,03,53,12.80
2015,12,05,03,54,10.40
2015,12,05,03,55,13.00
2015,12,05,03,56,11.80
2015,12,05,03,57,14.50
2015,12,05,03,58,14.40
2015,12,05,03,59,18.10
2015,12,05,04,00,10.20
2015,12,05,04,01,7.50
2015,12,05,04,02,11.10
2015,12,05,04,03,6.40
2015,12,05,04,04,8.00
2015,12,05,04,05,9.10
2015,12,05,04,06,7.60
2015,12,05,04,07,4.00
2015,12,05,04,08,1.40
2015,12,05,04,09,0.70
2015,12,05,04,10,0.30
2015,12,05,04,11,2.00
2015,12,05,04,12,1.60
2015,12,05,04,13,1.30
2015,12,05,04,14,1.80
2015,12,05,04,15,1.50
2015,12,05,04,16,4.30
2015,12,05,04,17,3.70
2015,12,05,04,18,6.50
2015,12,05,04,19,3.10
2015,12,05,04,20,2.90
2015,12,05,04,21,8.40
2015,12,05,04,22,3.00
2015,12,05,04,23,2.80
2015,12,05,04,24,4.20
2015,12,05,04,25,1.00
2015,12,05,04,26,0.40
2015,12,05,04,27,2.90
2015,12,05,04,28,2.30
2015,12,05,04,29,1.70
2015,12,05,04,30,4.00
2015,12,05,04,31,3.10
2015,12,05,04,32,1.80
2015,12,05,04,33,3.60
2015,12,05,04,34,1.40
2015,12,05,04,35,0.10
2015,12,05,04,36,2.30
2015,12,05,04,37,6.20
2015,12,05,04,38,7.50
2015,12,05,04,39,4.80
2015,12,05,04,40,0.70
2015,12,05,04,41,0.90
2015,12,05,04,42,1.20
2015,12,05,04,43,0.90
2015,12,05,04,44,0.00
2015,12,05,04,45,1.40
2015,12,05,04,46,3.20
2015,12,05,04,47,2.40
2015,12,05,04,48,0.20
2015,12,05,04,49,2.30
2015,12,05,04,50,4.00
2015,12,05,04,51,3.10
2015,12,05,04,52,4.30
2015,12,05,04,53,2.20
2015,12,05,04,54,0.20
2015,12,05,04,55,0.20
2015,12,05,04,56,0.00
2015,12,05,04,57,0.00
2015,12,05,04,58,0.10
2015,12,05,04,59,1.30
2015,12,05,05,00,0.40
2015,12,05,05,01,0.60
2015,12,05,05,02,1.40
2015,12,05,05,03,0.30
2015,12,05,05,04,0.00
2015,12,05,05,05,0.00
2015,12,05,05,06,0.00
2015,12,05,05,07,0.40
2015,12,05,05,08,0.70
2015,12,05,05,09,0.10
2015,12,05,05,10,0.00
2015,12,05,05,11,0.00
2015,12,05,05,12,0.00
2015,12,05,05,13,0.00
2015,12,05,05,14,1.10
2015,12,05,05,15,1.30
2015,12,05,05,16,1.60
2015,12,05,05,17,2.10
2015,12,05,05,18,0.80
2015,12,05,05,19,0.00
2015,12,05,05,20,0.00
2015,12,05,05,21,0.10
2015,12,05,05,22,0.80
2015,12,05,05,23,0.20
2015,12,05,05,24,0.00
2015,12,05,05,25,0.00
2015,12,05,05,26,1.20
2015,12,05,05,27,1.40
2015,12,05,05,28,1.70
2015,12,05,05,29,3.00
2015,12,05,05,30,3.10
2015,12,05,05,31,2.40
2015,12,05,05,32,1.30
2015,12,05,05,33,0.70
2015,12,05,05,34,4.10
2015,12,05,05,35,6.20
2015,12,05,05,36,7.10
2015,12,05,05,37,7.10
2015,12,05,05,38,7.50
2015,12,05,05,39,8.70
2015,12,05,05,40,7.10
2015,12,05,05,41,5.30
2015,12,05,05,42,2.00
2015,12,05,05,43,2.30
2015,12,05,05,44,0.20
2015,12,05,05,45,0.10
2015,12,05,05,46,1.50
2015,12,05,05,47,2.60
2015,12,05,05,48,4.20
2015,12,05,05,49,6.90
2015,12,05,05,50,4.70
2015,12,05,05,51,1.80
2015,12,05,05,52,3.30
2015,12,05,05,53,4.70
2015,12,05,05,54,6.60
2015,12,05,05,55,6.30
2015,12,05,05,56,3.00
2015,12,05,05,57,0.70
2015,12,05,05,58,2.90
2015,12,05,05,59,2.50
2015,12,05,06,00,3.60
2015,12,05,06,01,0.40
2015,12,05,06,02,0.00
2015,12,05,06,03,0.00
2015,12,05,06,04,0.00
2015,12,05,06,05,0.50
2015,12,05,06,06,2.90
2015,12,05,06,07,5.30
2015,12,05,06,08,4.20
2015,12,05,06,09,2.90
2015,12,05,06,10,2.40
2015,12,05,06,11,1.70
2015,12,05,06,12,0.30
2015,12,05,06,13,1.20
2015,12,05,06,14,3.40
2015,12,05,06,15,5.70
2015,12,05,06,16,6.20
2015,12,05,06,17,1.70
2015,12,05,06,18,0.40
2015,12,05,06,19,2.00
2015,12,05,06,20,1.60
2015,12,05,06,21,0.00
2015,12,05,06,22,0.00
2015,12,05,06,23,1.80
2015,12,05,06,24,3.10
2015,12,05,06,25,1.00
2015,12,05,06,26,0.10
2015,12,05,06,27,0.00
2015,12,05,06,28,0.00
2015,12,05,06,29,0.10
2015,12,05,06,30,1.10
2015,12,05,06,31,2.70
2015,12,05,06,32,4.00
2015,12,05,06,33,0.50
2015,12,05,06,34,0.00
2015,12,05,06,35,0.10
2015,12,05,06,36,3.10
2015,12,05,06,37,4.90
2015,12,05,06,38,4.80
2015,12,05,06,39,4.00
2015,12,05,06,40,3.20
2015,12,05,06,41,3.00
2015,12,05,06,42,0.60
2015,12,05,06,43,1.00
2015,12,05,06,44,0.00
2015,12,05,06,45,0.10
2015,12,05,06,46,0.50
2015,12,05,06,47,0.60
2015,12,05,06,48,0.20
2015,12,05,06,49,0.00
2015,12,05,06,50,0.00
2015,12,05,06,51,1.60
2015,12,05,06,52,2.70
2015,12,05,06,53,3.40
2015,12,05,06,54,1.10
2015,12,05,06,55,0.60
2015,12,05,06,56,0.20
2015,12,05,06,57,0.10
2015,12,05,06,58,1.00
2015,12,05,06,59,1.60
2015,12,05,07,00,2.90
2015,12,05,07,01,1.50
2015,12,05,07,02,2.30
2015,12,05,07,03,3.10
2015,12,05,07,04,1.50
2015,12,05,07,05,2.00
2015,12,05,07,06,0.50
2015,12,05,07,07,1.80
2015,12,05,07,08,4.20
2015,12,05,07,09,5.50
2015,12,05,07,10,5.30
2015,12,05,07,11,5.90
2015,12,05,07,12,3.40
2015,12,05,07,13,0.50
2015,12,05,07,14,1.40
2015,12,05,07,15,2.80
2015,12,05,07,16,4.80
2015,12,05,07,17,2.30
2015,12,05,07,18,0.10
2015,12,05,07,19,0.20
2015,12,05,07,20,1.30
2015,12,05,07,21,0.00
2015,12,05,07,22,0.00
2015,12,05,07,23,0.40
2015,12,05,07,24,2.30
2015,12,05,07,25,2.90
2015,12,05,07,26,0.50
2015,12,05,07,27,0.00
2015,12,05,07,28,0.00
2015,12,05,07,29,0.00
2015,12,05,07,30,0.40
2015,12,05,07,31,1.50
2015,12,05,07,32,3.40
2015,12,05,07,33,3.90
2015,12,05,07,34,3.10
2015,12,05,07,35,2.70
2015,12,05,07,36,3.50
2015,12,05,07,37,0.60
2015,12,05,07,38,0.40
2015,12,05,07,39,2.90
2015,12,05,07,40,3.80
2015,12,05,07,41,6.50
2015,12,05,07,42,5.30
2015,12,05,07,43,3.50
2015,12,05,07,44,0.70
2015,12,05,07,45,0.10
2015,12,05,07,46,0.70
2015,12,05,07,47,1.20
2015,12,05,07,48,4.30
2015,12,05,07,49,2.60
2015,12,05,07,50,0.50
2015,12,05,07,51,0.60
2015,12,05,07,52,3.20
2015,12,05,07,53,3.40
2015,12,05,07,54,0.50
2015,12,05,07,55,0.00
2015,12,05,07,56,1.60
2015,12,05,07,57,4.30
2015,12,05,07,58,4.80
2015,12,05,07,59,5.30
2015,12,05,08,00,3.20
2015,12,05,08,01,1.50
2015,12,05,08,02,2.90
2015,12,05,08,03,2.00
2015,12,05,08,04,3.40
2015,12,05,08,05,3.30
2015,12,05,08,06,5.40
2015,12,05,08,07,7.00
2015,12,05,08,08,4.90
2015,12,05,08,09,1.50
2015,12,05,08,10,0.00
2015,12,05,08,11,0.00
2015,12,05,08,12,0.10
2015,12,05,08,13,0.30
2015,12,05,08,14,0.10
2015,12,05,08,15,2.30
2015,12,05,08,16,4.50
2015,12,05,08,17,7.00
2015,12,05,08,18,5.20
2015,12,05,08,19,3.80
2015,12,05,08,20,3.00
2015,12,05,08,21,3.10
2015,12,05,08,22,4.00
2015,12,05,08,23,0.10
2015,12,05,08,24,0.00
2015,12,05,08,25,0.00
2015,12,05,08,26,0.00
2015,12,05,08,27,0.00
2015,12,05,08,28,1.60
2015,12,05,08,29,3.70
2015,12,05,08,30,1.00
2015,12,05,08,31,0.00
2015,12,05,08,32,0.90
2015,12,05,08,33,2.50
2015,12,05,08,34,2.80
2015,12,05,08,35,3.10
2015,12,05,08,36,7.20
2015,12,05,08,37,3.20
2015,12,05,08,38,1.70
2015,12,05,08,39,0.30
2015,12,05,08,40,0.00
2015,12,05,08,41,2.30
2015,12,05,08,42,5.90
2015,12,05,08,43,3.80
2015,12,05,08,44,4.10
2015,12,05,08,45,4.20
2015,12,05,08,46,4.00
2015,12,05,08,47,0.20
2015,12,05,08,48,0.10
2015,12,05,08,49,0.00
2015,12,05,08,50,1.50
2015,12,05,08,51,0.10
2015,12,05,08,52,0.00
2015,12,05,08,53,0.20
2015,12,05,08,54,2.50
2015,12,05,08,55,2.00
2015,12,05,08,56,3.70
2015,12,05,08,57,4.80
2015,12,05,08,58,2.20
2015,12,05,08,59,0.20
2015,12,05,09,00,0.80
2015,12,05,09,01,2.20
2015,12,05,09,02,3.30
2015,12,05,09,03,2.10
2015,12,05,09,04,2.00
2015,12,05,09,05,0.40
2015,12,05,09,06,0.50
2015,12,05,09,07,2.50
2015,12,05,09,08,2.70
2015,12,05,09,09,3.20
2015,12,05,09,10,3.00
2015,12,05,09,11,1.90
2015,12,05,09,12,0.30
2015,12,05,09,13,1.00
2015,12,05,09,14,1.90
2015,12,05,09,15,1.60
2015,12,05,09,16,1.80
2015,12,05,09,17,5.20
2015,12,05,09,18,5.10
2015,12,05,09,19,6.30
2015,12,05,09,20,5.60
2015,12,05,09,21,4.70
2015,12,05,09,22,5.00
2015,12,05,09,23,5.70
2015,12,05,09,24,6.00
2015,12,05,09,25,6.60
2015,12,05,09,26,7.90
2015,12,05,09,27,8.10
2015,12,05,09,28,5.80
2015,12,05,09,29,5.90
2015,12,05,09,30,6.20
2015,12,05,09,31,5.00
2015,12,05,09,32,5.80
2015,12,05,09,33,6.40
2015,12,05,09,34,6.90
2015,12,05,09,35,5.50
2015,12,05,09,36,4.20
2015,12,05,09,37,5.60
2015,12,05,09,38,7.10
2015,12,05,09,39,4.80
2015,12,05,09,40,4.50
2015,12,05,09,41,4.80
2015,12,05,09,42,4.70
2015,12,05,09,43,3.10
2015,12,05,09,44,2.20
2015,12,05,09,45,4.90
2015,12,05,09,46,3.50
2015,12,05,09,47,5.00
2015,12,05,09,48,6.20
2015,12,05,09,49,5.80
2015,12,05,09,50,5.10
2015,12,05,09,51,1.20
2015,12,05,09,52,1.20
2015,12,05,09,53,3.70
2015,12,05,09,54,7.20
2015,12,05,09,55,8.60
2015,12,05,09,56,8.80
2015,12,05,09,57,7.00
2015,12,05,09,58,3.50
2015,12,05,09,59,1.40
2015,12,05,10,00,2.00
2015,12,05,10,01,3.90
2015,12,05,10,02,5.30
2015,12,05,10,03,7.90
2015,12,05,10,04,7.20
2015,12,05,10,05,6.20
2015,12,05,10,06,4.40
2015,12,05,10,07,4.00
2015,12,05,10,08,6.10
2015,12,05,10,09,4.20
2015,12,05,10,10,3.90
2015,12,05,10,11,1.90
2015,12,05,10,12,2.70
2015,12,05,10,13,3.70
2015,12,05,10,14,3.10
2015,12,05,10,15,2.90
2015,12,05,10,16,4.20
2015,12,05,10,17,5.50
2015,12,05,10,18,7.10
2015,12,05,10,19,5.70
2015,12,05,10,20,6.80
2015,12,05,10,21,8.10
2015,12,05,10,22,7.10
2015,12,05,10,23,7.70
2015,12,05,10,24,6.20
2015,12,05,10,25,3.70
2015,12,05,10,26,2.20
2015,12,05,10,27,7.10
2015,12,05,10,28,7.60
2015,12,05,10,29,8.50
2015,12,05,10,30,8.30
2015,12,05,10,31,8.40
2015,12,05,10,32,8.30
2015,12,05,10,33,7.00
2015,12,05,10,34,5.90
2015,12,05,10,35,5.40
2015,12,05,10,36,4.40
2015,12,05,10,37,10.10
2015,12,05,10,38,10.10
2015,12,05,10,39,7.00
2015,12,05,10,40,8.80
2015,12,05,10,41,6.70
2015,12,05,10,42,6.70
2015,12,05,10,43,6.00
2015,12,05,10,44,4.50
2015,12,05,10,45,6.40
2015,12,05,10,46,7.90
2015,12,05,10,47,8.10
2015,12,05,10,48,9.30
2015,12,05,10,49,11.70
2015,12,05,10,50,10.00
2015,12,05,10,51,9.50
2015,12,05,10,52,8.90
2015,12,05,10,53,6.70
2015,12,05,10,54,7.60
2015,12,05,10,55,7.10
2015,12,05,10,56,9.30
2015,12,05,10,57,9.70
2015,12,05,10,58,10.80
2015,12,05,10,59,9.90
2015,12,05,11,00,6.00
2015,12,05,11,01,5.20
2015,12,05,11,02,6.50
2015,12,05,11,03,7.00
2015,12,05,11,04,6.90
2015,12,05,11,05,6.70
2015,12,05,11,06,6.80
2015,12,05,11,07,6.50
2015,12,05,11,08,8.80
2015,12,05,11,09,8.70
2015,12,05,11,10,6.40
2015,12,05,11,11,4.40
2015,12,05,11,12,4.60
2015,12,05,11,13,7.40
2015,12,05,11,14,8.90
2015,12,05,11,15,7.80
2015,12,05,11,16,8.10
2015,12,05,11,17,6.70
2015,12,05,11,18,6.40
2015,12,05,11,19,6.10
2015,12,05,11,20,8.80
2015,12,05,11,21,10.00
2015,12,05,11,22,8.70
2015,12,05,11,23,8.00
2015,12,05,11,24,8.90
2015,12,05,11,25,9.10
2015,12,05,11,26,9.40
2015,12,05,11,27,11.10
2015,12,05,11,28,9.70
2015,12,05,11,29,7.20
2015,12,05,11,30,8.70
2015,12,05,11,31,7.10
2015,12,05,11,32,8.10
2015,12,05,11,33,6.40
2015,12,05,11,34,5.00
2015,12,05,11,35,5.00
2015,12,05,11,36,4.70
2015,12,05,11,37,5.60
2015,12,05,11,38,3.50
2015,12,05,11,39,5.70
2015,12,05,11,40,7.00
2015,12,05,11,41,8.60
2015,12,05,11,42,8.80
2015,12,05,11,43,8.00
2015,12,05,11,44,8.10
2015,12,05,11,45,8.80
2015,12,05,11,46,8.60
2015,12,05,11,47,6.00
2015,12,05,11,48,5.70
2015,12,05,11,49,6.40
2015,12,05,11,50,8.80
2015,12,05,11,51,10.20
2015,12,05,11,52,9.10
2015,12,05,11,53,8.70
2015,12,05,11,54,9.60
2015,12,05,11,55,8.40
2015,12,05,11,56,10.30
2015,12,05,11,57,10.50
2015,12,05,11,58,7.10
2015,12,05,11,59,7.60
2015,12,05,12,00,3.40
2015,12,05,12,01,7.10
2015,12,05,12,02,8.00
2015,12,05,12,03,12.00
2015,12,05,12,04,8.50
2015,12,05,12,05,8.10
2015,12,05,12,06,7.70
2015,12,05,12,07,9.50
2015,12,05,12,08,10.50
2015,12,05,12,09,10.70
2015,12,05,12,10,11.70
2015,12,05,12,11,9.90
2015,12,05,12,12,7.20
2015,12,05,12,13,6.70
2015,12,05,12,14,5.70
2015,12,05,12,15,2.90
2015,12,05,12,16,6.30
2015,12,05,12,17,9.50
2015,12,05,12,18,9.90
2015,12,05,12,19,6.80
2015,12,05,12,20,8.70
2015,12,05,12,21,6.40
2015,12,05,12,22,4.60
2015,12,05,12,23,5.00
2015,12,05,12,24,7.10
2015,12,05,12,25,8.50
2015,12,05,12,26,7.80
2015,12,05,12,27,9.10
2015,12,05,12,28,7.50
2015,12,05,12,29,9.10
2015,12,05,12,30,6.40
2015,12,05,12,31,5.30
2015,12,05,12,32,6.40
2015,12,05,12,33,6.40
2015,12,05,12,34,6.40
2015,12,05,12,35,5.90
2015,12,05,12,36,5.70
2015,12,05,12,37,7.20
2015,12,05,12,38,5.60
2015,12,05,12,39,6.00
2015,12,05,12,40,5.60
2015,12,05,12,41,8.60
2015,12,05,12,42,8.50
2015,12,05,12,43,8.00
2015,12,05,12,44,6.80
2015,12,05,12,45,8.30
2015,12,05,12,46,8.90
2015,12,05,12,47,9.00
2015,12,05,12,48,8.90
2015,12,05,12,49,5.90
2015,12,05,12,50,2.50
2015,12,05,12,51,5.60
2015,12,05,12,52,7.70
2015,12,05,12,53,10.60
2015,12,05,12,54,10.40
2015,12,05,12,55,8.70
2015,12,05,12,56,6.10
2015,12,05,12,57,6.10
2015,12,05,12,58,8.20
2015,12,05,12,59,6.50
2015,12,05,13,00,5.20
2015,12,05,13,01,5.10
2015,12,05,13,02,9.60
2015,12,05,13,03,9.30
2015,12,05,13,04,10.00
2015,12,05,13,05,8.30
2015,12,05,13,06,4.30
2015,12,05,13,07,6.40
2015,12,05,13,08,7.00
2015,12,05,13,09,8.80
2015,12,05,13,10,9.00
2015,12,05,13,11,9.00
2015,12,05,13,12,9.00
2015,12,05,13,13,7.60
2015,12,05,13,14,5.00
2015,12,05,13,15,2.90
2015,12,05,13,16,6.20
2015,12,05,13,17,8.20
2015,12,05,13,18,11.10
2015,12,05,13,19,8.40
2015,12,05,13,20,8.60
2015,12,05,13,21,4.50
2015,12,05,13,22,3.90
2015,12,05,13,23,6.80
2015,12,05,13,24,6.10
2015,12,05,13,25,8.10
2015,12,05,13,26,7.10
2015,12,05,13,27,6.10
2015,12,05,13,28,4.60
2015,12,05,13,29,2.50
2015,12,05,13,30,3.90
2015,12,05,13,31,4.40
2015,12,05,13,32,5.60
2015,12,05,13,33,6.40
2015,12,05,13,34,4.70
2015,12,05,13,35,7.30
2015,12,05,13,36,7.30
2015,12,05,13,37,11.20
2015,12,05,13,38,9.90
2015,12,05,13,39,5.30
2015,12,05,13,40,7.00
2015,12,05,13,41,8.60
2015,12,05,13,42,8.30
2015,12,05,13,43,3.70
2015,12,05,13,44,2.40
2015,12,05,13,45,4.80
2015,12,05,13,46,6.20
2015,12,05,13,47,4.30
2015,12,05,13,48,7.80
2015,12,05,13,49,5.70
2015,12,05,13,50,4.10
2015,12,05,13,51,5.20
2015,12,05,13,52,6.70
2015,12,05,13,53,8.70
2015,12,05,13,54,8.50
2015,12,05,13,55,7.30
2015,12,05,13,56,8.40
2015,12,05,13,57,9.30
2015,12,05,13,58,9.00
2015,12,05,13,59,8.30
2015,12,05,14,00,6.90
2015,12,05,14,01,6.40
2015,12,05,14,02,4.20
2015,12,05,14,03,4.60
2015,12,05,14,04,8.10
2015,12,05,14,05,5.10
2015,12,05,14,06,5.70
2015,12,05,14,07,6.60
2015,12,05,14,08,4.00
2015,12,05,14,09,2.80
2015,12,05,14,10,5.50
2015,12,05,14,11,5.70
2015,12,05,14,12,5.20
2015,12,05,14,13,5.00
2015,12,05,14,14,4.70
2015,12,05,14,15,6.20
2015,12,05,14,16,5.80
2015,12,05,14,17,8.10
2015,12,05,14,18,8.30
2015,12,05,14,19,7.40
2015,12,05,14,20,4.50
2015,12,05,14,21,4.40
2015,12,05,14,22,3.80
2015,12,05,14,23,6.30
2015,12,05,14,24,7.10
2015,12,05,14,25,10.60
2015,12,05,14,26,8.90
2015,12,05,14,27,8.60
2015,12,05,14,28,4.20
2015,12,05,14,29,0.00
2015,12,05,14,30,0.20
2015,12,05,14,31,1.10
2015,12,05,14,32,4.90
2015,12,05,14,33,7.10
2015,12,05,14,34,6.40
2015,12,05,14,35,2.10
2015,12,05,14,36,0.10
2015,12,05,14,37,0.10
2015,12,05,14,38,2.30
2015,12,05,14,39,6.10
2015,12,05,14,40,3.60
2015,12,05,14,41,2.00
2015,12,05,14,42,1.00
2015,12,05,14,43,2.00
2015,12,05,14,44,2.30
2015,12,05,14,45,1.90
2015,12,05,14,46,4.40
2015,12,05,14,47,3.10
2015,12,05,14,48,3.70
2015,12,05,14,49,4.90
2015,12,05,14,50,6.20
2015,12,05,14,51,10.90
2015,12,05,14,52,10.70
2015,12,05,14,53,6.30
2015,12,05,14,54,3.30
2015,12,05,14,55,11.10
2015,12,05,14,56,9.70
2015,12,05,14,57,10.40
2015,12,05,14,58,8.60
2015,12,05,14,59,4.40
2015,12,05,15,00,3.00
2015,12,05,15,01,3.10
2015,12,05,15,02,5.30
2015,12,05,15,03,1.10
2015,12,05,15,04,0.70
2015,12,05,15,05,1.50
2015,12,05,15,06,2.80
2015,12,05,15,07,3.80
2015,12,05,15,08,3.60
2015,12,05,15,09,6.00
2015,12,05,15,10,4.40
2015,12,05,15,11,7.30
2015,12,05,15,12,10.00
2015,12,05,15,13,7.50
2015,12,05,15,14,5.50
2015,12,05,15,15,7.80
2015,12,05,15,16,5.60
2015,12,05,15,17,6.20
2015,12,05,15,18,4.10
2015,12,05,15,19,3.30
2015,12,05,15,20,6.60
2015,12,05,15,21,8.90
2015,12,05,15,22,4.60
2015,12,05,15,23,2.10
2015,12,05,15,24,6.50
2015,12,05,15,25,7.10
2015,12,05,15,26,6.80
2015,12,05,15,27,8.00
2015,12,05,15,28,9.60
2015,12,05,15,29,7.20
2015,12,05,15,30,4.00
2015,12,05,15,31,3.20
2015,12,05,15,32,5.80
2015,12,05,15,33,7.10
2015,12,05,15,34,6.20
2015,12,05,15,35,1.80
2015,12,05,15,36,4.50
2015,12,05,15,37,5.60
2015,12,05,15,38,4.30
2015,12,05,15,39,3.90
2015,12,05,15,40,1.10
2015,12,05,15,41,1.20
2015,12,05,15,42,1.30
2015,12,05,15,43,6.60
2015,12,05,15,44,5.20
2015,12,05,15,45,3.90
2015,12,05,15,46,3.70
2015,12,05,15,47,7.00
2015,12,05,15,48,2.80
2015,12,05,15,49,3.50
2015,12,05,15,50,5.30
2015,12,05,15,51,4.10
2015,12,05,15,52,4.40
2015,12,05,15,53,7.00
2015,12,05,15,54,7.40
2015,12,05,15,55,4.70
2015,12,05,15,56,3.10
2015,12,05,15,57,1.10
2015,12,05,15,58,0.40
2015,12,05,15,59,3.10
2015,12,05,16,00,4.50
2015,12,05,16,01,3.70
2015,12,05,16,02,1.70
2015,12,05,16,03,0.40
2015,12,05,16,04,0.30
2015,12,05,16,05,4.20
2015,12,05,16,06,8.00
2015,12,05,16,07,7.70
2015,12,05,16,08,2.80
2015,12,05,16,09,1.00
2015,12,05,16,10,5.10
2015,12,05,16,11,7.80
2015,12,05,16,12,7.20
2015,12,05,16,13,0.70
2015,12,05,16,14,5.20
2015,12,05,16,15,5.50
2015,12,05,16,16,5.50
2015,12,05,16,17,5.70
2015,12,05,16,18,5.30
2015,12,05,16,19,2.10
2015,12,05,16,20,4.40
2015,12,05,16,21,5.60
2015,12,05,16,22,4.60
2015,12,05,16,23,6.70
2015,12,05,16,24,7.00
2015,12,05,16,25,7.10
2015,12,05,16,26,8.00
2015,12,05,16,27,5.90
2015,12,05,16,28,6.70
2015,12,05,16,29,4.60
2015,12,05,16,30,2.50
2015,12,05,16,31,3.40
2015,12,05,16,32,3.30
2015,12,05,16,33,4.40
2015,12,05,16,34,2.50
2015,12,05,16,35,4.00
2015,12,05,16,36,3.90
2015,12,05,16,37,5.20
2015,12,05,16,38,5.20
2015,12,05,16,39,3.80
2015,12,05,16,40,5.70
2015,12,05,16,41,5.60
2015,12,05,16,42,6.10
2015,12,05,16,43,4.40
2015,12,05,16,44,3.10
2015,12,05,16,45,3.80
2015,12,05,16,46,6.30
2015,12,05,16,47,5.70
2015,12,05,16,48,3.80
2015,12,05,16,49,1.00
2015,12,05,16,50,0.00
2015,12,05,16,51,0.70
2015,12,05,16,52,0.50
2015,12,05,16,53,0.00
2015,12,05,16,54,2.60
2015,12,05,16,55,3.40
2015,12,05,16,56,3.00
2015,12,05,16,57,4.20
2015,12,05,16,58,5.20
2015,12,05,16,59,4.80
2015,12,05,17,00,9.10
2015,12,05,17,01,8.40
2015,12,05,17,02,6.10
2015,12,05,17,03,6.30
2015,12,05,17,04,8.70
2015,12,05,17,05,11.30
2015,12,05,17,06,10.30
2015,12,05,17,07,5.80
2015,12,05,17,08,6.10
2015,12,05,17,09,6.80
2015,12,05,17,10,8.80
2015,12,05,17,11,6.30
2015,12,05,17,12,6.40
2015,12,05,17,13,5.60
2015,12,05,17,14,5.10
2015,12,05,17,15,1.80
2015,12,05,17,16,0.70
2015,12,05,17,17,2.80
2015,12,05,17,18,3.10
2015,12,05,17,19,2.50
2015,12,05,17,20,3.20
2015,12,05,17,21,1.80
2015,12,05,17,22,0.80
2015,12,05,17,23,0.10
2015,12,05,17,24,0.50
2015,12,05,17,25,7.10
2015,12,05,17,26,6.90
2015,12,05,17,27,4.00
2015,12,05,17,28,6.00
2015,12,05,17,29,0.60
2015,12,05,17,30,0.30
2015,12,05,17,31,3.40
2015,12,05,17,32,3.70
2015,12,05,17,33,3.30
2015,12,05,17,34,2.20
2015,12,05,17,35,0.20
2015,12,05,17,36,1.80
2015,12,05,17,37,1.70
2015,12,05,17,38,2.10
2015,12,05,17,39,2.50
2015,12,05,17,40,4.20
2015,12,05,17,41,2.50
2015,12,05,17,42,2.70
2015,12,05,17,43,1.80
2015,12,05,17,44,0.20
2015,12,05,17,45,0.00
2015,12,05,17,46,0.00
2015,12,05,17,47,0.20
2015,12,05,17,48,1.50
2015,12,05,17,49,0.30
2015,12,05,17,50,0.20
2015,12,05,17,51,0.80
2015,12,05,17,52,0.00
2015,12,05,17,53,0.00
2015,12,05,17,54,0.90
2015,12,05,17,55,0.80
2015,12,05,17,56,0.70
2015,12,05,17,57,0.00
2015,12,05,17,58,0.00
2015,12,05,17,59,0.00
2015,12,05,18,00,0.00
2015,12,05,18,01,0.00
2015,12,05,18,02,0.00
2015,12,05,18,03,0.00